Regional Weather Roundup
Issued by NWS

Home | Current Version | Previous Version | Graphics & Text | Print | Product List | Glossary On
Versions: 1 2 3 4 5 6 7 8 9 10 11 12 13 14 15 16 17 18 19 20 21 22 23 24 25 26 27 28 29 30 31 32 33 34 35 36 37 38 39 40 41 42 43 44 45 46 47 48 49 50
000
ASUS43 KDMX 202001
RWRIA

WEATHER ROUNDUP FOR IOWA
NATIONAL WEATHER SERVICE DES MOINES IA
300 PM CDT WED SEP 20 2017

NOTE: "FAIR" INDICATES FEW OR NO CLOUDS BELOW 12,000 FEET WITH NO
SIGNIFICANT WEATHER AND/OR OBSTRUCTIONS TO VISIBILITY.

* - THESE STATIONS ARE NOT NWS STATIONS...THUS NOT UNDER NWS
QUALITY CONTROL.  THEY ALSO DO NOT REPORT WEATHER SUCH
AS PRECIPITATION OR FOG.

IAZ001>003-012>014-020>022-031>034-043>046-202100-
   NORTHWEST IOWA

CITY           SKY/WX    TMP DP  RH WIND       PRES   REMARKS
CARROLL *      SUNNY     79  55  44 N10G17    29.83S
CHEROKEE *     SUNNY     73  48  40 NW12      29.87R
DENISON *      SUNNY     75  54  46 NW9       29.87R
LE MARS *      SUNNY     73  48  40 VRB8      29.87S
ORANGE CITY *  SUNNY     72  52  49 NW5       29.87F
SHELDON *      SUNNY     72  45  37 CALM      29.86R
SIOUX CITY     SUNNY     73  52  47 NW10      29.87R
SPENCER        SUNNY     74  48  39 NW9       29.87R
STORM LAKE *   SUNNY     73  46  38 VRB7G15   29.87R
$$

IAZ055>058-069>071-079>083-090>094-202100-
   SOUTHWEST IOWA

CITY           SKY/WX    TMP DP  RH WIND       PRES   REMARKS
ATLANTIC *     SUNNY     81  61  50 NW10G16   29.82R HX  81
AUDUBON *      SUNNY     79  61  53 N9        29.84S HX  80
CLARINDA *     CLOUDY    84  68  58 N7        29.81S HX  87
COUNCIL BLFS * SUNNY     79  59  50 NW13      29.83S HX  80
CRESTON *      CLOUDY    84 -29   1 VRB5      29.81S HX  80
HARLAN  *      SUNNY     79  57  47 VRB7G16   29.87R HX  80
LAMONI         CLOUDY    85  71  63 S9        29.80S HX  90
RED OAK *      SUNNY     84  63  48 NW7G14    29.81S HX  85
SHENANDOAH *   SUNNY     82  64  54 VRB5      29.82R HX  84
$$

IAZ047>049-059>061-072>074-084-202100-
   CENTRAL IOWA

CITY           SKY/WX    TMP DP  RH WIND       PRES   REMARKS
AMES           CLOUDY    82  67  60 N10       29.79R HX  84
ANKENY *       CLOUDY    86  72  62 VRB6      29.78S HX  92
BOONE *        SUNNY     82  63  51 VRB7G14   29.80R HX  83
CHARITON *     MOSUNNY   84  72  65 S10       29.80S HX  89
DES MOINES     PTSUNNY   86  69  56 S8        29.77S HX  90
GRINNELL*      MOSUNNY   85  70  61 SW7       29.81S HX  90
KNOXVILLE *    PTSUNNY   86  70  58 S9        29.78S HX  90
MARSHALLTOWN   PTSUNNY   84  71  65 S12       29.78S HX  89
NEWTON *       PTSUNNY   86  70  58 S12       29.79S HX  90
PELLA *        MOSUNNY   85  69  57 SW7       29.80S HX  89
PERRY *          N/A     85  57  39 NW7       29.81R HX  84
$$

IAZ004>006-015-016-023>025-035-036-202100-
   NORTH CENTRAL IOWA

CITY           SKY/WX    TMP DP  RH WIND       PRES   REMARKS
ALGONA *       SUNNY     77  52  41 N8G14     29.85R
CLARION *      SUNNY     79  59  50 NW10      29.83R HX  80
ESTHERVILLE    SUNNY     73  50  44 W9        29.86R
FORT DODGE *   SUNNY     78  57  48 NW10      29.84R
MASON CITY     SUNNY     79  58  48 NW10      29.84R HX  80
FOREST CITY *    N/A     75  57  53 N10       29.84R
IOWA FALLS *     N/A     84  65  51 NW10      29.81R HX  86
$$

IAZ007>011-017>019-026>030-037>042-050>054-066-202100-
   NORTHEAST IOWA

CITY           SKY/WX    TMP DP  RH WIND       PRES   REMARKS
CEDAR RAPIDS   CLOUDY    88  70  55 SW13      29.79R HX  93
CHARLES CITY * PTSUNNY   82  66  57 NW9       29.80R HX  85
CLINTON *      SUNNY    N/A N/A N/A S16       29.80F
DECORAH *      PTSUNNY   81  70  69 VRB3      29.78S HX  84
DUBUQUE        MOSUNNY   88  70  55 S17G24    29.79S HX  93
MONTICELLO *   PTSUNNY   90  70  51 SW13G18   29.78R HX  95
OELWEIN *      CLOUDY    84  72  65 SW13      29.80S HX  89
WATERLOO       CLOUDY    83  69  62 S13       29.77S HX  86
$$

IAZ064-065-067-068-078-202100-
   EAST CENTRAL IOWA

CITY           SKY/WX    TMP DP  RH WIND       PRES   REMARKS
DAVENPORT      SUNNY     92  70  48 S14G24    29.80F HX  97
IOWA CITY      PTSUNNY   93  70  46 S14G20    29.78S HX  99
MUSCATINE *    SUNNY     93  70  46 S17G24    29.77S HX  99
QUAD CITIES    SUNNY     93  69  45 S14       29.78F HX  98
$$

IAZ062-063-075>077-085>089-095>099-202100-
   SOUTHEAST IOWA

CITY           SKY/WX    TMP DP  RH WIND       PRES   REMARKS
BURLINGTON     SUNNY     92  72  51 S16G22    29.80F HX  99
FAIRFIELD *    MOSUNNY   93  68  43 SW13      29.78S HX  97
FORT MADISON * SUNNY     93  72  49 S14G20    29.80F HX 100
KEOKUK *       SUNNY     93  70  46 S15G22    29.79F HX  99
OSKALOOSA *    PTSUNNY   87  70  55 SW8       29.80S HX  92
OTTUMWA        CLOUDY    88  70  55 SW9       29.80R HX  93
WASHINGTON *   SUNNY     93  72  49 SW13      29.79R HX 100
$$

ABBREVIATIONS USED IN REMARKS
   TC - TEMPERATURES IN CELSIUS
  WCI - WIND CHILL INDEX
   HX - HEAT INDEX
  VSB - VISIBILITY
$$




USA.gov is the U.S. government's official web portal to all federal, state and local government web resources and services.